| time (UTC) | temp F | wind direction | speed MPH | gust MPH | rain 1hr in | rain 24hr in | rain mn in | humidity % | barometer mb |
| 20260505081001 | 53 | 21 | 2.0 | 4.0 | 0.03 | 0.03 | 0.03 | 81 | 1010.0 |
| 20260505080501 | 53 | 222 | 2.0 | 4.0 | 0.00 | 0.00 | 0.00 | 80 | 1010.3 |
| 20260505080002 | 52 | 251 | 3.0 | 5.0 | 0.00 | 0.00 | 0.00 | 79 | 1010.0 |
| 20260505075501 | 52 | 292 | 3.0 | 5.0 | 0.00 | 0.00 | 0.00 | 79 | 1010.1 |
| 20260505075001 | 52 | 266 | 4.0 | 9.0 | 0.00 | 0.00 | 0.00 | 79 | 1009.9 |
| 20260505074502 | 52 | 4 | 2.0 | 9.0 | 0.00 | 0.00 | 0.00 | 79 | 1009.6 |
| 20260505074001 | 52 | 333 | 0.0 | 0.0 | 0.00 | 0.00 | 0.00 | 78 | 1009.5 |
| 20260505073501 | 52 | 205 | 0.0 | 0.0 | 0.00 | 0.00 | 0.00 | 78 | 1009.5 |
| 20260505073001 | 52 | 206 | 0.0 | 0.0 | 0.00 | 0.00 | 0.00 | 78 | 1009.6 |
| 20260505071502 | 52 | 261 | 0.0 | 0.0 | 0.00 | 0.00 | 0.00 | 77 | 1009.7 |
| 20260505071001 | 52 | 261 | 0.0 | 0.0 | 0.00 | 0.00 | 0.00 | 77 | 1009.8 |
| 20260505070501 | 52 | 261 | 0.0 | 0.0 | 0.00 | 0.00 | 0.00 | 76 | 1009.9 |
| 20260505070002 | 52 | 261 | 0.0 | 0.0 | 0.00 | 0.00 | 0.00 | 76 | 1009.7 |
| 20260505065501 | 53 | 259 | 0.0 | 0.0 | 0.00 | 0.00 | 0.00 | 74 | 1009.8 |
| 20260505065001 | 53 | 259 | 0.0 | 0.0 | 0.00 | 0.00 | 0.00 | 73 | 1009.8 |
| 20260505064502 | 53 | 259 | 0.0 | 0.0 | 0.00 | 0.00 | 0.00 | 72 | 1009.8 |
| 20260505064001 | 53 | 259 | 0.0 | 0.0 | 0.00 | 0.00 | 0.00 | 73 | 1009.8 |
| 20260505063501 | 53 | 259 | 0.0 | 0.0 | 0.00 | 0.00 | 0.00 | 73 | 1009.7 |
| 20260505063002 | 53 | 259 | 0.0 | 0.0 | 0.00 | 0.00 | 0.00 | 72 | 1009.8 |
| 20260505062501 | 53 | 259 | 0.0 | 0.0 | 0.00 | 0.00 | 0.00 | 73 | 1009.8 |
| 20260505062001 | 53 | 259 | 0.0 | 0.0 | 0.00 | 0.00 | 0.00 | 74 | 1009.9 |
| 20260505061502 | 53 | 259 | 0.0 | 2.0 | 0.00 | 0.00 | 0.00 | 73 | 1009.9 |
| 20260505061002 | 54 | 259 | 1.0 | 2.0 | 0.00 | 0.00 | 0.00 | 72 | 1009.9 |
| 20260505060501 | 54 | 259 | 2.0 | 3.0 | 0.00 | 0.00 | 0.00 | 71 | 1009.9 |
| 20260505060001 | 54 | 259 | 2.0 | 3.0 | 0.00 | 0.00 | 0.00 | 71 | 1009.9 |
| 20260505055501 | 54 | 259 | 2.0 | 3.0 | 0.00 | 0.00 | 0.00 | 70 | 1009.8 |
| 20260505055001 | 55 | 258 | 1.0 | 3.0 | 0.00 | 0.00 | 0.00 | 68 | 1009.8 |
| 20260505054001 | 57 | 50 | 0.0 | 0.0 | 0.00 | 0.00 | 0.00 | 65 | 1009.9 |
| 20260505053501 | 58 | 50 | 0.0 | 0.0 | 0.00 | 0.00 | 0.00 | 63 | 1009.8 |
| 20260505053002 | 58 | 50 | 1.0 | 2.0 | 0.00 | 0.00 | 0.00 | 62 | 1009.9 |
| 20260505052501 | 59 | 50 | 1.0 | 2.0 | 0.00 | 0.00 | 0.00 | 62 | 1009.8 |
| 20260505052001 | 59 | 50 | 1.0 | 5.0 | 0.00 | 0.00 | 0.00 | 61 | 1009.9 |
| 20260505051502 | 59 | 50 | 3.0 | 5.0 | 0.00 | 0.00 | 0.00 | 61 | 1009.8 |
| 20260505051001 | 59 | 50 | 3.0 | 5.0 | 0.00 | 0.00 | 0.00 | 61 | 1009.8 |
| 20260505050501 | 59 | 50 | 3.0 | 5.0 | 0.00 | 0.00 | 0.00 | 61 | 1009.8 |
| 20260505041501 | 60 | 50 | 2.0 | 5.0 | 0.00 | 0.00 | 0.00 | 59 | 1009.7 |
| 20260505035501 | 60 | 50 | 1.0 | 5.0 | 0.00 | 0.00 | 0.00 | 58 | 1009.6 |
| 20260505034502 | 60 | 50 | 1.0 | 5.0 | 0.00 | 0.00 | 0.00 | 57 | 1009.4 |
| 20260505034001 | 60 | 50 | 2.0 | 5.0 | 0.00 | 0.00 | 0.00 | 57 | 1009.4 |
| 20260505033500 | 60 | 50 | 3.0 | 6.0 | 0.00 | 0.00 | 0.00 | 57 | 1009.4 |
| 20260505033001 | 61 | 50 | 3.0 | 6.0 | 0.00 | 0.00 | 0.00 | 57 | 1009.5 |
| 20260505032500 | 60 | 50 | 2.0 | 6.0 | 0.00 | 0.00 | 0.00 | 57 | 1009.6 |
| 20260505031501 | 60 | 50 | 2.0 | 3.0 | 0.00 | 0.00 | 0.00 | 57 | 1009.6 |
| 20260505031001 | 61 | 50 | 2.0 | 3.0 | 0.00 | 0.00 | 0.00 | 56 | 1009.5 |
| 20260505030501 | 61 | 50 | 2.0 | 5.0 | 0.00 | 0.00 | 0.00 | 56 | 1009.5 |
| 20260505030001 | 61 | 50 | 2.0 | 5.0 | 0.00 | 0.00 | 0.00 | 55 | 1009.6 |
| 20260505025501 | 61 | 50 | 3.0 | 5.0 | 0.00 | 0.00 | 0.00 | 55 | 1009.7 |
| 20260505025001 | 61 | 50 | 3.0 | 6.0 | 0.00 | 0.00 | 0.00 | 55 | 1009.7 |
| 20260505024501 | 61 | 50 | 2.0 | 6.0 | 0.00 | 0.00 | 0.00 | 55 | 1009.7 |
| 20260505024001 | 61 | 50 | 2.0 | 4.0 | 0.00 | 0.00 | 0.00 | 55 | 1009.7 |
| 20260505023501 | 61 | 50 | 2.0 | 4.0 | 0.00 | 0.00 | 0.00 | 55 | 1009.7 |
| 20260505023001 | 61 | 50 | 3.0 | 4.0 | 0.00 | 0.00 | 0.00 | 55 | 1009.8 |
| 20260505022000 | 62 | 50 | 3.0 | 5.0 | 0.00 | 0.00 | 0.00 | 54 | 1009.9 |
| 20260505021505 | 62 | 50 | 3.0 | 5.0 | 0.00 | 0.00 | 0.00 | 54 | 1009.9 |
| 20260505020501 | 62 | 50 | 3.0 | 5.0 | 0.00 | 0.00 | 0.00 | 54 | 1009.9 |
| 20260505020008 | 62 | 50 | 3.0 | 5.0 | 0.00 | 0.00 | 0.00 | 53 | 1009.9 |
| 20260505015501 | 62 | 50 | 3.0 | 5.0 | 0.00 | 0.00 | 0.00 | 53 | 1010.0 |
| 20260505015001 | 62 | 50 | 3.0 | 5.0 | 0.00 | 0.00 | 0.00 | 53 | 1010.0 |
| 20260505014001 | 62 | 50 | 2.0 | 5.0 | 0.00 | 0.00 | 0.00 | 53 | 1009.9 |
| 20260505013501 | 62 | 50 | 2.0 | 5.0 | 0.00 | 0.00 | 0.00 | 53 | 1009.9 |
| 20260505013007 | 63 | 50 | 2.0 | 5.0 | 0.00 | 0.00 | 0.00 | 53 | 1009.9 |
| 20260505012501 | 63 | 50 | 3.0 | 5.0 | 0.00 | 0.00 | 0.00 | 53 | 1009.8 |
| 20260505012001 | 63 | 50 | 2.0 | 4.0 | 0.00 | 0.00 | 0.00 | 52 | 1009.7 |
| 20260505011509 | 63 | 50 | 2.0 | 4.0 | 0.00 | 0.00 | 0.00 | 52 | 1009.7 |
| 20260505011003 | 63 | 50 | 2.0 | 4.0 | 0.00 | 0.00 | 0.00 | 52 | 1009.6 |
| 20260505010502 | 63 | 50 | 2.0 | 4.0 | 0.00 | 0.00 | 0.00 | 51 | 1009.5 |
| 20260505010007 | 63 | 50 | 2.0 | 4.0 | 0.00 | 0.00 | 0.00 | 51 | 1009.6 |
| 20260505005500 | 64 | 50 | 3.0 | 5.0 | 0.00 | 0.00 | 0.00 | 51 | 1009.6 |
| 20260505005001 | 64 | 50 | 3.0 | 6.0 | 0.00 | 0.00 | 0.00 | 51 | 1009.5 |
| 20260505004504 | 64 | 50 | 3.0 | 8.0 | 0.00 | 0.00 | 0.00 | 50 | 1009.5 |
| 20260505004001 | 64 | 50 | 4.0 | 8.0 | 0.00 | 0.00 | 0.00 | 50 | 1009.4 |
| 20260505003501 | 64 | 50 | 4.0 | 8.0 | 0.00 | 0.00 | 0.00 | 50 | 1009.4 |
| 20260505002501 | 65 | 50 | 4.0 | 9.0 | 0.00 | 0.00 | 0.00 | 49 | 1009.3 |
| 20260505002000 | 65 | 50 | 6.0 | 12.0 | 0.00 | 0.00 | 0.00 | 49 | 1009.3 |
| 20260505001503 | 65 | 50 | 6.0 | 12.0 | 0.00 | 0.00 | 0.00 | 48 | 1009.2 |
| 20260505001001 | 65 | 50 | 5.0 | 10.0 | 0.00 | 0.00 | 0.00 | 48 | 1009.1 |
| 20260505000501 | 66 | 50 | 5.0 | 10.0 | 0.00 | 0.00 | 0.00 | 48 | 1009.2 |
| 20260505000007 | 66 | 50 | 5.0 | 12.0 | 0.00 | 0.00 | 0.00 | 47 | 1009.1 |
| 20260504235501 | 66 | 50 | 5.0 | 12.0 | 0.00 | 0.00 | 0.00 | 47 | 1009.1 |
| 20260504235001 | 67 | 50 | 6.0 | 15.0 | 0.00 | 0.00 | 0.00 | 46 | 1009.0 |
| 20260504234502 | 67 | 50 | 8.0 | 15.0 | 0.00 | 0.00 | 0.00 | 46 | 1008.9 |
| 20260504234001 | 67 | 50 | 8.0 | 16.0 | 0.00 | 0.00 | 0.00 | 46 | 1008.9 |
| 20260504233501 | 68 | 50 | 7.0 | 16.0 | 0.00 | 0.00 | 0.00 | 46 | 1008.9 |
| 20260504233003 | 68 | 50 | 7.0 | 17.0 | 0.00 | 0.00 | 0.00 | 45 | 1008.8 |
| 20260504232001 | 68 | 50 | 9.0 | 17.0 | 0.00 | 0.00 | 0.00 | 44 | 1008.7 |
| 20260504231501 | 69 | 50 | 8.0 | 17.0 | 0.00 | 0.00 | 0.00 | 45 | 1008.7 |
| 20260504231001 | 69 | 50 | 8.0 | 17.0 | 0.00 | 0.00 | 0.00 | 44 | 1008.6 |
| 20260504230501 | 69 | 50 | 9.0 | 19.0 | 0.00 | 0.00 | 0.00 | 45 | 1008.6 |
| 20260504230003 | 70 | 50 | 9.0 | 19.0 | 0.00 | 0.00 | 0.00 | 43 | 1008.5 |
| 20260504225501 | 70 | 50 | 6.0 | 14.0 | 0.00 | 0.00 | 0.00 | 42 | 1008.5 |
| 20260504224501 | 70 | 50 | 8.0 | 15.0 | 0.00 | 0.00 | 0.00 | 42 | 1008.3 |
| 20260504224000 | 70 | 184 | 8.0 | 15.0 | 0.00 | 0.00 | 0.00 | 42 | 1008.4 |
| 20260504223001 | 71 | 205 | 7.0 | 14.0 | 0.00 | 0.00 | 0.00 | 43 | 1008.3 |
| 20260504222501 | 71 | 250 | 7.0 | 16.0 | 0.00 | 0.00 | 0.00 | 42 | 1008.4 |
| 20260504222001 | 71 | 220 | 8.0 | 16.0 | 0.00 | 0.00 | 0.00 | 43 | 1008.5 |
| 20260504221501 | 71 | 226 | 8.0 | 12.0 | 0.00 | 0.00 | 0.00 | 42 | 1008.5 |
| 20260504221000 | 71 | 238 | 8.0 | 15.0 | 0.00 | 0.00 | 0.00 | 42 | 1008.6 |
| 20260504220501 | 71 | 257 | 9.0 | 15.0 | 0.00 | 0.00 | 0.00 | 41 | 1008.6 |
| 20260504220001 | 71 | 198 | 9.0 | 18.0 | 0.00 | 0.00 | 0.00 | 40 | 1008.6 |
| 20260504215000 | 71 | 244 | 9.0 | 18.0 | 0.00 | 0.00 | 0.00 | 41 | 1008.6 |
| 20260504214501 | 71 | 245 | 7.0 | 17.0 | 0.00 | 0.00 | 0.00 | 41 | 1008.7 |
| 20260504214001 | 71 | 184 | 8.0 | 16.0 | 0.00 | 0.00 | 0.00 | 42 | 1008.6 |
| 20260504213501 | 71 | 202 | 8.0 | 15.0 | 0.00 | 0.00 | 0.00 | 41 | 1008.6 |
| 20260504212500 | 71 | 230 | 9.0 | 16.0 | 0.00 | 0.00 | 0.00 | 43 | 1008.8 |
| 20260504212001 | 71 | 166 | 9.0 | 15.0 | 0.00 | 0.00 | 0.00 | 42 | 1008.7 |
| 20260504211501 | 71 | 202 | 10.0 | 16.0 | 0.00 | 0.00 | 0.00 | 41 | 1008.7 |
| 20260504210501 | 72 | 238 | 7.0 | 16.0 | 0.00 | 0.00 | 0.00 | 40 | 1008.7 |
| 20260504205500 | 71 | 50 | 10.0 | 16.0 | 0.00 | 0.00 | 0.00 | 42 | 1008.8 |
| 20260504205001 | 71 | 50 | 9.0 | 16.0 | 0.00 | 0.00 | 0.00 | 41 | 1008.9 |
| 20260504204000 | 71 | 50 | 11.0 | 18.0 | 0.00 | 0.00 | 0.00 | 43 | 1009.0 |
| 20260504203500 | 71 | 50 | 10.0 | 18.0 | 0.00 | 0.00 | 0.00 | 42 | 1009.1 |
| 20260504203001 | 71 | 50 | 9.0 | 18.0 | 0.00 | 0.00 | 0.00 | 44 | 1009.1 |
| 20260504202500 | 70 | 50 | 10.0 | 21.0 | 0.00 | 0.00 | 0.00 | 42 | 1009.1 |
| 20260504202000 | 70 | 50 | 11.0 | 21.0 | 0.00 | 0.00 | 0.00 | 41 | 1009.2 |
| 20260504201501 | 70 | 50 | 12.0 | 19.0 | 0.00 | 0.00 | 0.00 | 40 | 1009.3 |
| 20260504200502 | 71 | 50 | 11.0 | 18.0 | 0.00 | 0.00 | 0.00 | 41 | 1009.4 |
| 20260504200004 | 71 | 50 | 10.0 | 18.0 | 0.00 | 0.00 | 0.00 | 41 | 1009.4 |
| 20260504195501 | 70 | 50 | 10.0 | 17.0 | 0.00 | 0.00 | 0.00 | 43 | 1009.4 |
| 20260504195000 | 70 | 50 | 10.0 | 19.0 | 0.00 | 0.00 | 0.00 | 43 | 1009.4 |
| 20260504194507 | 70 | 50 | 12.0 | 22.0 | 0.00 | 0.00 | 0.00 | 42 | 1009.5 |
| 20260504194000 | 70 | 50 | 12.0 | 22.0 | 0.00 | 0.00 | 0.00 | 42 | 1009.6 |
| 20260504193501 | 70 | 50 | 11.0 | 19.0 | 0.00 | 0.00 | 0.00 | 43 | 1009.6 |
| 20260504193001 | 70 | 50 | 12.0 | 20.0 | 0.00 | 0.00 | 0.00 | 44 | 1009.6 |
| 20260504192501 | 70 | 50 | 9.0 | 20.0 | 0.00 | 0.00 | 0.00 | 42 | 1009.7 |
| 20260504192000 | 69 | 50 | 10.0 | 26.0 | 0.00 | 0.00 | 0.00 | 42 | 1009.7 |
| 20260504191501 | 70 | 50 | 11.0 | 26.0 | 0.00 | 0.00 | 0.00 | 42 | 1009.7 |
| 20260504191000 | 70 | 50 | 10.0 | 16.0 | 0.00 | 0.00 | 0.00 | 43 | 1009.7 |
| 20260504190003 | 69 | 50 | 12.0 | 21.0 | 0.00 | 0.00 | 0.00 | 44 | 1009.8 |
| 20260504185501 | 69 | 50 | 13.0 | 24.0 | 0.00 | 0.00 | 0.00 | 45 | 1009.9 |
| 20260504185001 | 70 | 50 | 11.0 | 24.0 | 0.00 | 0.00 | 0.00 | 42 | 1010.1 |
| 20260504184501 | 69 | 50 | 10.0 | 19.0 | 0.00 | 0.00 | 0.00 | 43 | 1010.0 |
| 20260504184000 | 69 | 50 | 11.0 | 18.0 | 0.00 | 0.00 | 0.00 | 44 | 1010.1 |
| 20260504183500 | 69 | 50 | 12.0 | 27.0 | 0.00 | 0.00 | 0.00 | 44 | 1010.2 |
| 20260504183001 | 69 | 205 | 10.0 | 27.0 | 0.00 | 0.00 | 0.00 | 43 | 1010.3 |
| 20260504182500 | 69 | 50 | 8.0 | 16.0 | 0.00 | 0.00 | 0.00 | 44 | 1010.4 |
| 20260504182001 | 69 | 50 | 9.0 | 16.0 | 0.00 | 0.00 | 0.00 | 44 | 1010.3 |
| 20260504181502 | 69 | 50 | 11.0 | 18.0 | 0.00 | 0.00 | 0.00 | 43 | 1010.4 |
| 20260504181001 | 69 | 50 | 11.0 | 18.0 | 0.00 | 0.00 | 0.00 | 44 | 1010.5 |
| 20260504180500 | 69 | 50 | 10.0 | 19.0 | 0.00 | 0.00 | 0.00 | 44 | 1010.5 |
| 20260504180002 | 68 | 50 | 9.0 | 19.0 | 0.00 | 0.00 | 0.00 | 45 | 1010.5 |
| 20260504175501 | 68 | 50 | 10.0 | 21.0 | 0.00 | 0.00 | 0.00 | 43 | 1010.6 |
| 20260504174502 | 68 | 50 | 7.0 | 15.0 | 0.00 | 0.00 | 0.00 | 45 | 1010.7 |
| 20260504174001 | 67 | 50 | 10.0 | 16.0 | 0.00 | 0.00 | 0.00 | 47 | 1010.9 |
| 20260504173500 | 67 | 50 | 11.0 | 19.0 | 0.00 | 0.00 | 0.00 | 46 | 1011.0 |
| 20260504172500 | 67 | 50 | 12.0 | 19.0 | 0.00 | 0.00 | 0.00 | 45 | 1011.2 |
| 20260504172001 | 66 | 50 | 12.0 | 21.0 | 0.00 | 0.00 | 0.00 | 47 | 1011.2 |
| 20260504171502 | 66 | 50 | 12.0 | 21.0 | 0.00 | 0.00 | 0.00 | 45 | 1011.4 |
| 20260504171001 | 66 | 50 | 12.0 | 22.0 | 0.00 | 0.00 | 0.00 | 46 | 1011.4 |
| 20260504170500 | 66 | 50 | 11.0 | 22.0 | 0.00 | 0.00 | 0.00 | 45 | 1011.6 |
| 20260504151001 | 62 | 50 | 10.0 | 22.0 | 0.00 | 0.00 | 0.00 | 46 | 1012.7 |
| 20260504150500 | 62 | 50 | 9.0 | 20.0 | 0.00 | 0.00 | 0.00 | 44 | 1012.9 |
| 20260504141000 | 57 | 50 | 8.0 | 14.0 | 0.00 | 0.00 | 0.00 | 51 | 1013.3 |
| 20260504130501 | 55 | 50 | 7.0 | 14.0 | 0.00 | 0.00 | 0.00 | 52 | 1013.6 |
| 20260504110500 | 46 | 198 | 5.0 | 8.0 | 0.00 | 0.00 | 0.00 | 65 | 1013.7 |
| 20260504100500 | 42 | 50 | 3.0 | 4.0 | 0.00 | 0.00 | 0.00 | 67 | 1013.6 |